Weather History for Springfield, IL

Change the Weather History Date:

Friday, September 27, 2013

  Actual Average Record
Temperature  
Mean Temperature 68 °F 62 °F  
Max Temperature 83 °F 74 °F 91 °F (1998)
Min Temperature 53 °F 50 °F 37 °F (1942)
Degree Days  
Heating Degree Days 0 5  
Month to date heating degree days 31 59  
Since 1 July heating degree days 42 64  
Cooling Degree Days 3 2  
Month to date cooling degree days 154 122  
Year to date cooling degree days 1094 1092  
Growing Degree Days 18 (Base 50)    
Moisture  
Dew Point 52 °F    
Average Humidity 57    
Maximum Humidity 83    
Minimum Humidity 31    
Precipitation  
Precipitation 0.00 in 0.10 in 2.18 in (1916)
Month to date precipitation 1.00 2.62  
Year to date precipitation 31.67 28.27  
Snow  
Snow 0.00 in 0.00 in 0.00 in ()
Month to date snowfall 0.0 0.0  
Since 1 July snowfall 0.0 0.0  
Since 1 September snowfall 0.0 0.0  
Snow Depth 0.00 in    
Sea Level Pressure  
Sea Level Pressure 30.07 in    
Wind  
Wind Speed 7 mph (SE)    
Max Wind Speed 15 mph    
Max Gust Speed 20 mph    
Visibility 10 miles    
Events      
T = Trace of Precipitation, MM = Missing Value Source: NWS Daily Summary

Daily Weather History Graph

Daily Weather History Graph

Search for Another Location

Airport:

Trip Planner

Search our weather history database for the weather conditions in past years. The results will help you decide how hot, cold, wet, or windy it might be!

Date:

Astronomy

Sep. 27, 2013 Rise Set
Actual Time 6:51 AM CDT 6:47 PM CDT
Civil Twilight 6:24 AM CDT 7:14 PM CDT
Nautical Twilight 5:53 AM CDT 7:45 PM CDT
Astronomical Twilight 5:21 AM CDT 8:17 PM CDT
Moon No Moon Rise 2:25 PM CDT
Length of Visible Light 12h 49m
Length of Day
11h 55m
Last Quarter, 45% of the Moon is Illuminated
Sep 27
Last Quarter
Oct 4
New
Oct 11
First Quarter
Oct 18
Full
Oct 26
Last Quarter

Hourly Weather History & Observations

Time (CDT) Temp. Heat Index Dew Point Humidity Pressure Visibility Wind Dir Wind Speed Gust Speed Precip Events Conditions
12:52 AM 61.0 °F - 51.1 °F 70% 30.04 in 10.0 mi SE 9.2 mph - N/A   Clear
1:52 AM 61.0 °F - 51.1 °F 70% 30.06 in 10.0 mi SE 6.9 mph - N/A   Clear
2:52 AM 59.0 °F - 51.1 °F 75% 30.06 in 10.0 mi ESE 4.6 mph - N/A   Clear
3:52 AM 55.9 °F - 50.0 °F 80% 30.07 in 10.0 mi ESE 4.6 mph - N/A   Clear
4:52 AM 53.1 °F - 48.9 °F 86% 30.08 in 10.0 mi ESE 3.5 mph - N/A   Clear
5:52 AM 53.1 °F - 48.9 °F 86% 30.09 in 10.0 mi ENE 3.5 mph - N/A   Clear
6:52 AM 53.1 °F - 48.9 °F 86% 30.12 in 10.0 mi East 3.5 mph - N/A   Clear
7:52 AM 57.9 °F - 52.0 °F 81% 30.13 in 10.0 mi East 4.6 mph - N/A   Clear
8:52 AM 64.9 °F - 54.0 °F 68% 30.13 in 10.0 mi SE 5.8 mph - N/A   Clear
9:52 AM 70.0 °F - 55.9 °F 61% 30.13 in 10.0 mi Calm Calm - N/A   Clear
10:52 AM 75.0 °F - 57.9 °F 55% 30.12 in 10.0 mi SSE 8.1 mph - N/A   Clear
11:52 AM 79.0 °F - 57.9 °F 48% 30.11 in 10.0 mi SSE 10.4 mph - N/A   Clear
12:52 PM 81.0 °F 80.7 °F 55.0 °F 41% 30.09 in 10.0 mi SSE 9.2 mph - N/A   Clear
1:52 PM 82.0 °F 81.2 °F 53.1 °F 37% 30.06 in 10.0 mi SE 10.4 mph - N/A   Clear
2:52 PM 82.9 °F - 48.9 °F 31% 30.04 in 10.0 mi SSE 11.5 mph 17.3 mph N/A   Clear
3:52 PM 82.0 °F - 48.0 °F 30% 30.03 in 10.0 mi SE 9.2 mph 18.4 mph N/A   Clear
4:52 PM 82.0 °F - 48.9 °F 31% 30.03 in 10.0 mi SE 11.5 mph - N/A   Clear
5:52 PM 78.1 °F - 48.9 °F 36% 30.02 in 10.0 mi SSE 9.2 mph - N/A   Clear
6:52 PM 71.1 °F - 54.0 °F 55% 30.03 in 10.0 mi SE 6.9 mph - N/A   Clear
7:52 PM 66.9 °F - 54.0 °F 63% 30.04 in 10.0 mi SSE 6.9 mph - N/A   Clear
8:52 PM 66.0 °F - 55.9 °F 70% 30.05 in 10.0 mi SE 5.8 mph - N/A   Clear
9:52 PM 63.0 °F - 55.0 °F 75% 30.05 in 10.0 mi SE 6.9 mph - N/A   Clear
10:52 PM 62.1 °F - 54.0 °F 75% 30.04 in 10.0 mi ESE 6.9 mph - N/A   Clear
11:52 PM 61.0 °F - 54.0 °F 78% 30.04 in 10.0 mi SE 6.9 mph - N/A   Clear